Total_Precipitation_Accumulation
0.34 0.72 1.00 0.88 0.80 0.79 0.75 0.74 0.76 0.64 0.57 0.60 0.56 0.50 0.54 0.58 0.62 0.56 0.57 0.56 0.46 0.41 0.45 0.43 0.37 0.41 0.45 0.58 0.69 0.87 1.25 1.70 1.88 1.77 1.74 1.79 1.82 1.77 1.66 1.62 1.59 1.62 1.63 1.64
0.40 0.52 0.41 0.44 0.51 0.61 0.70 0.76 0.77 0.67 0.49 0.48 0.48 0.43 0.44 0.50 0.51 0.48 0.45 0.48 0.43 0.39 0.36 0.34 0.32 0.36 0.40 0.58 0.76 0.89 1.18 1.64 1.84 1.96 2.06 2.26 2.41 2.27 2.12 2.09 2.04 2.10 2.12 2.27
0.35 0.31 0.24 0.36 0.54 0.65 0.69 0.72 0.71 0.64 0.50 0.45 0.43 0.46 0.41 0.46 0.41 0.39 0.39 0.40 0.36 0.30 0.28 0.30 0.30 0.34 0.39 0.52 0.67 0.82 1.03 1.33 1.66 1.92 2.19 2.46 2.67 2.64 2.51 2.34 2.30 2.36 2.41 2.56
0.34 0.28 0.28 0.36 0.45 0.56 0.72 0.49 0.45 0.45 0.59 0.60 0.45 0.69 0.49 0.47 0.43 0.38 0.38 0.38 0.36 0.31 0.29 0.33 0.32 0.34 0.39 0.47 0.58 0.76 0.98 1.21 1.44 1.67 2.07 2.50 2.78 2.87 2.77 2.67 2.63 2.58 2.59 2.63
0.32 0.26 0.29 0.34 0.35 0.42 0.54 0.41 0.41 0.44 0.54 0.51 0.36 0.50 0.49 0.40 0.42 0.37 0.34 0.33 0.33 0.31 0.32 0.36 0.37 0.41 0.47 0.52 0.58 0.74 0.91 1.13 1.37 1.59 1.94 2.33 2.58 2.79 2.91 2.74 2.61 2.63 2.66 2.67
0.27 0.20 0.22 0.28 0.32 0.34 0.43 0.46 0.45 0.47 0.55 0.60 0.29 0.42 0.54 0.38 0.35 0.35 0.31 0.28 0.29 0.33 0.38 0.43 0.53 0.59 0.62 0.58 0.64 0.75 0.88 1.05 1.20 1.33 1.53 1.76 2.10 2.32 2.64 2.63 2.56 2.68 2.65 2.57
0.32 0.27 0.22 0.24 0.31 0.34 0.42 0.64 0.85 0.87 0.84 0.56 0.23 0.38 0.53 0.39 0.31 0.31 0.32 0.29 0.30 0.35 0.41 0.50 0.65 0.73 0.77 0.70 0.66 0.72 0.89 0.98 1.07 1.16 1.23 1.36 1.60 1.74 2.09 2.41 2.38 2.29 2.34 2.40
0.36 0.37 0.22 0.22 0.28 0.33 0.35 0.56 0.89 1.03 0.90 0.58 0.38 0.55 0.60 0.43 0.35 0.31 0.30 0.33 0.38 0.42 0.49 0.67 0.84 0.91 0.91 0.82 0.76 0.82 0.97 1.05 1.09 1.12 1.13 1.20 1.30 1.36 1.52 1.74 1.84 1.86 1.89 2.12
0.36 0.33 0.20 0.21 0.21 0.23 0.30 0.37 0.43 0.62 0.60 0.64 0.60 0.67 0.60 0.40 0.38 0.38 0.40 0.45 0.56 0.65 0.70 0.83 0.99 1.08 1.00 0.89 0.82 0.88 1.01 1.15 1.17 1.18 1.22 1.29 1.28 1.23 1.31 1.32 1.45 1.62 1.65 1.71
0.37 0.36 0.23 0.22 0.24 0.23 0.22 0.29 0.45 0.67 0.87 0.91 0.73 0.73 0.71 0.59 0.54 0.50 0.54 0.60 0.72 0.83 0.91 1.00 1.14 1.19 1.07 0.94 0.86 0.91 1.02 1.14 1.34 1.45 1.38 1.34 1.38 1.39 1.58 1.60 1.45 1.40 1.55 1.61
0.49 0.50 0.30 0.26 0.25 0.25 0.27 0.37 0.52 0.70 0.73 1.01 1.14 1.03 0.80 0.72 0.71 0.74 0.78 0.82 0.88 1.01 1.02 1.01 1.12 1.20 1.11 0.93 0.86 0.86 0.91 1.02 1.16 1.19 1.24 1.21 1.28 1.38 1.62 1.82 1.77 1.57 1.53 1.54
0.47 0.63 0.45 0.30 0.28 0.29 0.36 0.47 0.68 1.06 1.00 0.92 1.13 1.11 0.78 0.71 0.75 0.76 0.77 0.76 0.81 0.91 0.91 0.96 1.02 0.98 0.90 0.78 0.71 0.71 0.73 0.85 0.99 1.00 1.05 1.13 1.14 1.24 1.35 1.47 1.50 1.41 1.29 1.26
0.61 0.84 0.82 0.68 0.62 0.48 0.55 0.56 0.65 0.85 0.98 1.01 1.15 1.11 0.74 0.67 0.62 0.64 0.67 0.70 0.72 0.71 0.71 0.72 0.76 0.75 0.74 0.74 0.73 0.68 0.69 0.78 0.87 0.93 1.01 1.11 1.09 1.09 1.10 1.13 1.09 1.12 1.10 1.14
0.63 0.71 0.79 0.85 0.80 0.74 0.71 0.60 0.57 0.79 1.09 0.99 0.94 0.89 0.72 0.64 0.59 0.62 0.63 0.65 0.67 0.60 0.53 0.54 0.57 0.62 0.68 0.72 0.73 0.70 0.65 0.73 0.85 1.02 1.09 1.17 1.17 1.17 1.16 1.13 1.10 1.11 1.11 1.13
0.53 0.53 0.41 0.38 0.40 0.52 0.55 0.48 0.48 0.58 0.68 0.84 0.79 0.74 0.61 0.58 0.63 0.67 0.64 0.59 0.56 0.49 0.42 0.43 0.45 0.51 0.53 0.57 0.62 0.65 0.62 0.67 0.75 0.90 1.03 1.09 1.17 1.23 1.16 1.06 1.01 1.06 1.04 1.02
0.41 0.45 0.35 0.29 0.28 0.37 0.44 0.43 0.43 0.44 0.49 0.59 0.64 0.63 0.50 0.46 0.46 0.49 0.46 0.40 0.42 0.42 0.36 0.33 0.35 0.38 0.40 0.42 0.45 0.46 0.55 0.72 0.75 0.81 0.92 1.11 1.20 1.13 1.08 0.98 0.96 0.97 0.94 0.93
0.39 0.49 0.56 0.44 0.34 0.39 0.62 0.58 0.58 0.60 0.53 0.54 0.48 0.39 0.26 0.26 0.29 0.33 0.34 0.34 0.38 0.37 0.32 0.30 0.31 0.32 0.34 0.37 0.45 0.49 0.56 0.68 0.71 0.76 0.91 1.12 1.15 1.06 0.99 1.03 1.04 0.97 0.94 0.96
0.32 0.50 0.70 0.54 0.53 0.85 0.94 0.66 0.63 0.59 0.39 0.26 0.19 0.17 0.16 0.23 0.22 0.21 0.23 0.25 0.29 0.29 0.25 0.25 0.26 0.27 0.29 0.32 0.38 0.44 0.50 0.54 0.59 0.67 0.79 0.97 1.02 1.01 1.03 1.02 1.00 0.91 0.85 0.85
0.31 0.53 0.78 0.66 0.67 0.80 0.72 0.47 0.39 0.41 0.30 0.14 0.11 0.13 0.14 0.17 0.17 0.14 0.15 0.16 0.17 0.18 0.15 0.16 0.18 0.21 0.23 0.22 0.25 0.31 0.34 0.38 0.44 0.54 0.66 0.76 0.79 0.86 0.89 0.86 0.89 0.84 0.76 0.76
0.45 0.60 0.89 0.81 0.91 0.86 0.44 0.25 0.24 0.33 0.43 0.17 0.13 0.12 0.10 0.12 0.16 0.12 0.09 0.09 0.10 0.10 0.09 0.09 0.11 0.16 0.20 0.19 0.19 0.21 0.26 0.31 0.35 0.46 0.57 0.66 0.68 0.71 0.74 0.80 0.83 0.84 0.78 0.75
0.49 0.63 0.75 0.79 0.99 0.79 0.36 0.24 0.27 0.46 0.54 0.27 0.17 0.13 0.10 0.09 0.10 0.08 0.08 0.08 0.08 0.08 0.07 0.07 0.08 0.14 0.18 0.19 0.18 0.16 0.20 0.24 0.30 0.36 0.47 0.55 0.58 0.65 0.75 0.83 0.85 0.90 0.86 0.81
0.59 0.65 0.64 0.72 0.92 0.83 0.40 0.36 0.45 0.46 0.34 0.26 0.20 0.16 0.12 0.08 0.06 0.05 0.06 0.06 0.07 0.07 0.07 0.07 0.08 0.14 0.17 0.18 0.18 0.16 0.18 0.21 0.24 0.26 0.34 0.47 0.56 0.63 0.72 0.83 0.89 0.87 0.88 0.89
0.62 0.67 0.71 0.79 0.90 0.61 0.42 0.45 0.43 0.36 0.32 0.23 0.15 0.12 0.11 0.08 0.06 0.05 0.05 0.07 0.08 0.08 0.07 0.07 0.09 0.12 0.12 0.13 0.16 0.16 0.18 0.19 0.18 0.20 0.25 0.34 0.41 0.46 0.55 0.66 0.77 0.82 0.83 0.84
0.47 0.45 0.54 0.65 0.56 0.37 0.35 0.36 0.31 0.28 0.24 0.18 0.15 0.11 0.10 0.08 0.07 0.06 0.05 0.05 0.07 0.07 0.08 0.09 0.12 0.13 0.12 0.12 0.14 0.16 0.17 0.17 0.19 0.22 0.25 0.27 0.30 0.33 0.39 0.53 0.61 0.66 0.72 0.77
0.41 0.47 0.54 0.61 0.55 0.39 0.32 0.31 0.28 0.25 0.19 0.16 0.18 0.17 0.14 0.12 0.08 0.07 0.06 0.05 0.05 0.06 0.06 0.08 0.11 0.13 0.14 0.12 0.13 0.16 0.17 0.18 0.19 0.22 0.24 0.25 0.27 0.30 0.34 0.42 0.55 0.63 0.69 0.74
0.32 0.44 0.59 0.65 0.56 0.51 0.36 0.28 0.24 0.21 0.18 0.15 0.16 0.17 0.19 0.20 0.17 0.11 0.08 0.06 0.06 0.07 0.08 0.10 0.11 0.12 0.13 0.13 0.12 0.15 0.18 0.19 0.24 0.27 0.25 0.26 0.28 0.31 0.34 0.39 0.48 0.55 0.57 0.59